This demonstration page uses our WeatherBlox Daily Observations layout. Learn more.

Left ArrowRight Arrow

47.50024, -111.30081

Hourly Observations for October 9, 2019

Temp ( °F °C ) Dew Point ( °F °C ) Humidity (%) Winds ( mph kmh ) Pressure ( in mb ) Visibility ( mi km ) Precip ( " mm )
12:53 am 00:53 Mostly Cloudy with Light Snow 22 -5.6 19 -7.2 89 89 N 15 24 30.21 1023 1 2 0.02 0.51
1:20 am 01:20 Cloudy with Light Snow 22 -5.6 19 -7.2 89 89 N 15 24 30.25 1024 1 2 0.02 0.51
1:44 am 01:44 Mostly Cloudy with Light Snow 22 -5.6 19 -7.2 89 89 N 13 20 30.27 1025 1 1 0.04 1.02
1:53 am 01:53 Mostly Cloudy with Snow 22 -5.6 19 -7.2 89 89 N 12 19 30.22 1023 1 1 0.04 1.02
2:27 am 02:27 Mostly Cloudy with Light Snow 22 -5.6 19 -7.2 89 89 N 13 20 30.27 1025 1 2 0.00 0.00
2:53 am 02:53 Cloudy with Light Snow 22 -5.6 19 -7.2 89 89 N 12 19 30.22 1024 1 2 0.00 0.00
3:38 am 03:38 Cloudy with Light Snow 22 -5.6 19 -7.2 89 89 N 13 20 30.27 1025 1 2 1.40 35.56
3:53 am 03:53 Cloudy with Light Snow 22 -5.6 18 -7.8 85 85 N 14 22 30.24 1024 1 2 1.40 35.56
4:16 am 04:16 Cloudy with Light Snow 22 -5.6 19 -7.2 89 89 N 15 24 30.28 1025 1 2 0.01 0.25
4:53 am 04:53 Cloudy with Light Snow 21 -6.1 18 -7.8 88 88 N 18 30 30.26 1025 2 2 0.02 0.51
5:53 am 05:53 Cloudy with Light Snow 21 -6.1 17 -8.3 85 85 N 17 28 30.28 1025 2 2 0.25 6.35
6:16 am 06:16 Cloudy with Light Snow 21 -6.1 17 -8.3 85 85 NNE 16 26 30.33 1027 2 3 0.00 0.00
6:43 am 06:43 Cloudy with Light Snow 21 -6.1 17 -8.3 85 85 N 15 24 30.33 1027 2 3 0.00 0.00
6:53 am 06:53 Cloudy with Light Snow 21 -6.1 18 -7.8 88 88 N 16 26 30.29 1026 2 3 0.00 0.00
7:53 am 07:53 Cloudy with Light Snow 21 -6.1 18 -7.8 88 88 N 13 20 30.32 1027 2 3 0.00 0.00
8:05 am 08:05 Cloudy with Light Snow 21 -6.1 18 -7.8 88 88 N 13 20 30.36 1028 1 2 0.00 0.00
8:21 am 08:21 Mostly Cloudy with Light Snow 21 -6.1 18 -7.8 88 88 NNE 14 22 30.37 1028 1 1 0.01 0.25
8:46 am 08:46 Mostly Cloudy with Light Snow 21 -6.1 17 -8.3 85 85 NNE 15 24 30.38 1029 1 2 0.01 0.25
8:53 am 08:53 Cloudy with Light Snow 21 -6.1 17 -8.3 85 85 NNE 15 24 30.34 1027 1 2 0.01 0.25
9:53 am 09:53 Mostly Cloudy with Light Snow 22 -5.6 18 -7.8 85 85 NNE 13 20 30.36 1028 1 2 0.02 0.51
10:12 am 10:12 Cloudy with Light Snow 22 -5.6 18 -7.8 85 85 N 12 19 30.40 1029 1 1 0.00 0.00
10:42 am 10:42 Cloudy with Light Snow 22 -5.6 18 -7.8 85 85 NNE 12 19 30.42 1030 1 2 0.01 0.25
10:51 am 10:51 Cloudy with Snow 21 -6 18 -8 86 86 NNE 12 19 30.43 1030 1 1 0.01 0.25
10:53 am 10:53 Cloudy with Snow 22 -5.6 18 -7.8 85 85 NNE 13 20 30.40 1029 1 1 0.01 0.25
11:05 am 11:05 Cloudy with Light Snow 23 -5 18 -7.8 81 81 NNE 12 19 30.41 1030 1 2 0.00 0.00
11:09 am 11:09 Cloudy with Light Snow 23 -5 18 -7.8 81 81 N 13 20 30.41 1030 1 2 0.00 0.00
11:19 am 11:19 Cloudy with Light Snow 23 -5 18 -7.8 81 81 NNE 12 19 30.41 1030 1 2 0.00 0.00
11:53 am 11:53 Cloudy with Light Snow 23 -5 17 -8.3 78 78 NNE 15 24 30.40 1030 1 2 0.01 0.25
12:11 pm 12:11 Cloudy with Light Snow 23 -5 17 -8.3 78 78 NNE 13 20 30.42 1030 1 2 0.00 0.00
12:17 pm 12:17 Cloudy with Light Snow 23 -5 17 -8.3 78 78 NNE 14 22 30.42 1030 3 4 0.00 0.00
12:53 pm 12:53 Cloudy with Light Snow 24 -4.4 18 -7.8 77 77 N 14 22 30.41 1030 2 3 0.00 0.00
12:57 pm 12:57 Cloudy with Light Snow 24 -4.4 17 -8.3 75 75 NNE 13 20 30.42 1030 3 4 0.00 0.00
12:59 pm 12:59 Cloudy with Light Snow 24 -4.4 17 -8.3 75 75 NNE 13 20 30.42 1030 3 4 0.00 0.00
1:48 pm 13:48 Cloudy 25 -4 18 -8 74 74 N 12 19 30.42 1030 9 14 0.00 0.00
1:53 pm 13:53 Cloudy 24 -4.4 17 -8.3 75 75 N 13 20 30.42 1030 9 14 0.00 0.00
2:53 pm 14:53 Cloudy 25 -3.9 15 -9.4 66 66 NNE 10 17 30.43 1030 10 16 0.00 0.00
3:24 pm 15:24 Cloudy 25 -3.9 15 -9.4 66 66 NNE 9 15 30.44 1031 10 16 0.00 0.00
3:53 pm 15:53 Cloudy 25 -3.9 14 -10 63 63 N 9 15 30.44 1031 10 16 0.00 0.00
4:50 pm 16:50 Cloudy 25 -4 18 -8 74 74 N 10 17 30.46 1032 10 16 0.00 0.00
4:53 pm 16:53 Cloudy 24 -4.4 17 -8.3 75 75 N 10 17 30.47 1032 10 16 0.00 0.00
5:05 pm 17:05 Cloudy 23 -5 17 -8.3 78 78 N 12 19 30.48 1032 10 16 0.00 0.00
5:53 pm 17:53 Cloudy 23 -5 17 -8.3 78 78 N 7 11 30.50 1033 10 16 0.00 0.00
6:53 pm 18:53 Cloudy 22 -5.6 17 -8.3 82 82 NNW 6 9 30.52 1033 10 16 0.00 0.00
7:53 pm 19:53 Cloudy 21 -6.1 17 -8.3 85 85 NW 3 6 30.54 1034 10 16 0.00 0.00
8:53 pm 20:53 Cloudy 21 -6.1 15 -9.4 78 78 N 3 6 30.55 1035 10 16 0.00 0.00
9:53 pm 21:53 Cloudy 20 -6.7 15 -9.4 81 81 Calm 30.55 1035 10 16 0.00 0.00
10:53 pm 22:53 Cloudy 20 -6.7 15 -9.4 81 81 Calm 30.56 1035 10 16 0.00 0.00
11:53 pm 23:53 Partly Cloudy 16 -8.9 13 -10.6 88 88 S 10 17 30.57 1035 10 16 0.00 0.00

Powered by AerisWeather